Location: Eitze
(52.9840°N, 9.6894°E)
Time: 10:32:54
(UTC+00:00)

Cosmos 2218 Rocket - Pass Details

Date: 19 May 2025
Orbit: 954 x 1006 km, 82.9° (Epoch: 23 June)

Event Time Altitude Azimuth Distance (km) Brightness Sun altitude
Rises 20:30:57 0° 350° (N) 3,743 8.3 -8.6°
Reaches altitude 10° 20:33:31 10° 352° (N) 2,785 7.4 -8.9°
Maximum altitude 20:39:55 72° 77° (ENE) 1,046 4.1 -9.5°
Enters shadow 20:46:02 11° 162° (SSE) 2,673 5.7 -10.0°
